Change the Weather History Date:

Tuesday, December 25, 2012

  Actual Average Record
Temperature  
Mean Temperature 30 °F -  
Max Temperature 33 °F 35 °F 62 °F (1964)
Min Temperature 27 °F 17 °F -12 °F (1989)
Degree Days  
Heating Degree Days 34    
Moisture  
Dew Point 26 °F    
Average Humidity 82    
Maximum Humidity 100    
Minimum Humidity 61    
Precipitation  
Precipitation 0.03 in - - ()
Sea Level Pressure  
Sea Level Pressure 30.07 in    
Wind  
Wind Speed 6 mph (NNW)    
Max Wind Speed 13 mph    
Max Gust Speed -    
Visibility 7 miles    
Events Fog    
Averages and records for this station are not official NWS values.
T = Trace of Precipitation, MM = Missing Value Source: NWS Daily Summary

Daily Weather History Graph

Daily Weather History Graph

Search for Another Location

Airport or City:

Trip Planner

Search our weather history database for the weather conditions in past years. The results will help you decide how hot, cold, wet, or windy it might be!

Date:

Astronomy

Dec. 25, 2012 Rise Set
Actual Time 7:46 AM EST 4:56 PM EST
Civil Twilight 7:14 AM EST 5:27 PM EST
Nautical Twilight 6:39 AM EST 6:02 PM EST
Astronomical Twilight 6:05 AM EST 6:36 PM EST
Moon 3:03 PM EST (12/25) 5:16 AM EST (12/25)
Length of Visible Light 10h 13m
Length of Day
9h 10m
Waxing Gibbous, 93% of the Moon is Illuminated
Dec 25
Waxing Gibbous
Dec 28
Full
Jan 4
Last Quarter
Jan 11
New
Jan 18
First Quarter

Hourly Weather History & Observations

Time (EST) Temp. Windchill Dew Point Humidity Pressure Visibility Wind Dir Wind Speed Gust Speed Precip Events Conditions
12:20 AM 32.0 °F 26.4 °F 30.2 °F 93% 29.85 in 5.0 mi WSW 5.8 mph - N/A   Overcast
12:28 AM 32.0 °F 27.5 °F 30.2 °F 93% 29.86 in 4.0 mi WSW 4.6 mph - N/A   Overcast
12:53 AM 32.0 °F 27.5 °F 30.0 °F 92% 29.90 in 2.5 mi WSW 4.6 mph - N/A   Overcast
1:12 AM 32.0 °F 26.4 °F 30.2 °F 93% 29.87 in 1.8 mi West 5.8 mph - N/A   Overcast
1:29 AM 32.0 °F 24.8 °F 30.2 °F 93% 29.88 in 0.8 mi West 8.1 mph - N/A   Mist
1:53 AM 30.9 °F 24.3 °F 30.0 °F 96% 29.93 in 1.2 mi West 6.9 mph - N/A   Overcast
2:06 AM 30.2 °F 25.4 °F 30.2 °F 100% 29.90 in 2.5 mi WNW 4.6 mph - N/A   Overcast
2:36 AM 30.2 °F 24.3 °F 28.4 °F 93% 29.92 in 1.5 mi WNW 5.8 mph - N/A   Overcast
2:53 AM 30.9 °F 24.3 °F 28.9 °F 92% 29.97 in 1.8 mi WNW 6.9 mph - N/A   Overcast
3:09 AM 30.2 °F 25.4 °F 28.4 °F 93% 29.93 in 2.0 mi NW 4.6 mph - N/A   Overcast
3:29 AM 30.2 °F 24.3 °F 28.4 °F 93% 29.93 in 1.8 mi NW 5.8 mph - N/A   Overcast
3:48 AM 30.2 °F 25.4 °F 28.4 °F 93% 29.94 in 0.8 mi NW 4.6 mph - N/A   Mist
3:53 AM 30.9 °F 24.3 °F 28.9 °F 92% 29.98 in 0.5 mi NW 6.9 mph - N/A Fog Light Freezing Fog
4:21 AM 30.2 °F 23.4 °F 28.4 °F 93% 29.95 in 1.2 mi NNW 6.9 mph - N/A   Overcast
4:30 AM 30.2 °F 24.3 °F 28.4 °F 93% 29.96 in 3.0 mi NW 5.8 mph - N/A   Overcast
4:42 AM 30.2 °F 25.4 °F 28.4 °F 93% 29.96 in 8.0 mi NW 4.6 mph - N/A   Overcast
4:53 AM 30.0 °F 25.2 °F 28.9 °F 96% 30.00 in 9.0 mi NW 4.6 mph - N/A   Overcast
5:42 AM 30.2 °F 23.4 °F 26.6 °F 86% 30.00 in 10.0 mi WNW 6.9 mph - N/A   Overcast
5:53 AM 30.0 °F 23.2 °F 27.0 °F 88% 30.05 in 10.0 mi NW 6.9 mph - N/A   Overcast
6:18 AM 30.2 °F 22.6 °F 26.6 °F 86% 30.02 in 10.0 mi NW 8.1 mph - N/A   Overcast
6:32 AM 30.2 °F 23.4 °F 26.6 °F 86% 30.03 in 10.0 mi NW 6.9 mph - N/A   Overcast
6:53 AM 30.0 °F 24.1 °F 26.1 °F 85% 30.09 in 10.0 mi NNW 5.8 mph - N/A   Overcast
7:53 AM 30.0 °F 24.1 °F 26.1 °F 85% 30.12 in 10.0 mi NW 5.8 mph - N/A   Overcast
8:53 AM 30.0 °F 26.5 °F 25.0 °F 82% 30.14 in 10.0 mi NNW 3.5 mph - N/A   Overcast
9:16 AM 30.2 °F 26.7 °F 26.6 °F 86% 30.10 in 10.0 mi NW 3.5 mph - N/A   Overcast
9:53 AM 30.0 °F 26.5 °F 26.1 °F 85% 30.16 in 9.0 mi Variable 3.5 mph - N/A   Overcast
10:19 AM 30.2 °F 25.4 °F 24.8 °F 80% 30.11 in 10.0 mi North 4.6 mph - N/A   Overcast
10:35 AM 30.2 °F 26.7 °F 26.6 °F 86% 30.13 in 10.0 mi Variable 3.5 mph - N/A   Overcast
10:53 AM 30.9 °F - 26.1 °F 82% 30.17 in 10.0 mi Calm Calm - N/A   Overcast
11:53 AM 32.0 °F - 28.0 °F 85% 30.19 in 10.0 mi Calm Calm - N/A   Overcast
12:02 PM 32.0 °F - 26.6 °F 80% 30.14 in 10.0 mi Calm Calm - N/A   Overcast
12:53 PM 33.1 °F 28.7 °F 27.0 °F 78% 30.17 in 10.0 mi NNE 4.6 mph - 0.03 in   Overcast
1:14 PM 33.8 °F 28.6 °F 26.6 °F 75% 30.14 in 10.0 mi NE 5.8 mph - N/A   Overcast
1:26 PM 33.8 °F 26.4 °F 26.6 °F 75% 30.13 in 10.0 mi NE 9.2 mph - N/A   Overcast
1:53 PM 33.1 °F 26.1 °F 25.0 °F 72% 30.18 in 10.0 mi NNE 8.1 mph - N/A   Overcast
2:53 PM 33.1 °F 26.1 °F 23.0 °F 66% 30.18 in 10.0 mi NNE 8.1 mph - N/A   Overcast
3:53 PM 33.1 °F 26.9 °F 21.0 °F 61% 30.21 in 10.0 mi NNE 6.9 mph - N/A   Overcast
4:53 PM 32.0 °F 26.4 °F 21.0 °F 64% 30.24 in 10.0 mi NE 5.8 mph - N/A   Overcast
5:53 PM 32.0 °F 27.5 °F 23.0 °F 69% 30.23 in 10.0 mi NNE 4.6 mph - N/A   Overcast
6:53 PM 30.9 °F 25.2 °F 21.0 °F 67% 30.25 in 10.0 mi NE 5.8 mph - N/A   Overcast
7:53 PM 30.9 °F 23.5 °F 19.9 °F 64% 30.26 in 10.0 mi NE 8.1 mph - N/A   Overcast
8:53 PM 30.0 °F 21.7 °F 19.9 °F 66% 30.25 in 10.0 mi NE 9.2 mph - N/A   Overcast
9:27 PM 30.2 °F 21.9 °F 19.4 °F 64% 30.21 in 10.0 mi NE 9.2 mph - N/A   Overcast
9:53 PM 30.0 °F 20.5 °F 19.9 °F 66% 30.25 in 10.0 mi NE 11.5 mph - N/A   Overcast
10:53 PM 28.9 °F 18.6 °F 18.0 °F 64% 30.25 in 10.0 mi NE 12.7 mph - N/A   Overcast
11:53 PM 27.0 °F 18.0 °F 17.1 °F 66% 30.26 in 10.0 mi ENE 9.2 mph - N/A   Scattered Clouds